Volver al catálogo

TIANHUI 2-02B

ActivoCienciaSSO
NORAD 49072·PAYLOAD·🇨🇳 China

Lanzado Aug 18, 2021 desde Taiyuan Satellite Launch Center

Loading…

Próximos Pases (próximas 24 horas)

TLE

ActualizadoSource: Space-Track

Época: Sep 14, 2026, 22:02 UTC

1 49072U 21074B   26257.91839056  .00001373  00000-0  73376-4 0  9993
2 49072  97.4859 259.9795 0001977  92.7073 267.4387 15.16755435280878

Sigue TIANHUI 2-02B en tiempo real con AllMySat

Download on the App Store